SWA1262 KBWI-KPVD

Flight info

Callsign SWA1262
Flight time 0h 51m
Altitude 35000
Route DUKPN1 BROSS Q419 RBV Q430 CREEL ORCHA JORDN JORDN2
Aircraft B737/M-SDE2E3FGHIRWXY/LB1

Departure

Time 2026-05-08 06:45
Airport Baltimore/Washington International Thurgood Marshall Airport (KBWI)

Arrival

Time 2026-05-08 07:36
Airport Rhode Island T. F. Green International Airport (KPVD)
Time Latitude Longitude Altitude Speed Heading
2026-05-08 06:03 39.17750 -76.66605 155 ft 0 kts 251°
2026-05-08 06:36 39.17751 -76.66603 155 ft 2 kts 251°
2026-05-08 06:36 39.17760 -76.66572 155 ft 4 kts 245°
2026-05-08 06:36 39.17773 -76.66545 155 ft 4 kts 215°
2026-05-08 06:37 39.17788 -76.66539 155 ft 1 kts 144°
2026-05-08 06:37 39.17788 -76.66540 155 ft 1 kts 144°
2026-05-08 06:40 39.17776 -76.66525 155 ft 5 kts 133°
2026-05-08 06:40 39.17737 -76.66451 155 ft 14 kts 125°
2026-05-08 06:41 39.17650 -76.66451 154 ft 16 kts 209°
2026-05-08 06:41 39.17549 -76.66414 152 ft 18 kts 130°
2026-05-08 06:41 39.17469 -76.66254 148 ft 23 kts 112°
2026-05-08 06:41 39.17447 -76.66051 147 ft 23 kts 94°
2026-05-08 06:42 39.17435 -76.65830 143 ft 26 kts 94°
2026-05-08 06:42 39.17425 -76.65620 141 ft 20 kts 94°
2026-05-08 06:42 39.17376 -76.65523 140 ft 2 kts 183°
2026-05-08 06:44 39.17373 -76.65524 140 ft 1 kts 183°
2026-05-08 06:44 39.17346 -76.65526 140 ft 10 kts 185°
2026-05-08 06:44 39.17288 -76.65581 139 ft 12 kts 255°
2026-05-08 06:45 39.17295 -76.65839 143 ft 66 kts 274°
2026-05-08 06:45 39.17353 -76.66810 152 ft 148 kts 275°
2026-05-08 06:45 39.17427 -76.68293 799 ft 161 kts 274°
2026-05-08 06:45 39.17447 -76.69637 2107 ft 153 kts 277°
2026-05-08 06:46 39.17511 -76.71062 2770 ft 171 kts 282°
2026-05-08 06:46 39.17644 -76.72741 3168 ft 205 kts 279°
2026-05-08 06:46 39.17310 -76.74656 3692 ft 235 kts 243°
2026-05-08 06:46 39.16073 -76.76065 4702 ft 243 kts 210°
2026-05-08 06:47 39.14405 -76.76425 5811 ft 248 kts 179°
2026-05-08 06:47 39.12785 -76.75595 6622 ft 260 kts 150°
2026-05-08 06:47 39.11540 -76.73825 6976 ft 273 kts 134°
2026-05-08 06:47 39.10402 -76.71844 6995 ft 276 kts 133°
2026-05-08 06:48 39.09647 -76.70539 6999 ft 274 kts 134°
2026-05-08 06:48 39.08328 -76.67719 6998 ft 284 kts 110°
2026-05-08 06:48 39.08140 -76.66034 7167 ft 293 kts 94°
2026-05-08 06:48 39.08217 -76.63379 7781 ft 298 kts 89°
2026-05-08 06:49 39.08348 -76.60701 8505 ft 301 kts 89°
2026-05-08 06:49 39.08480 -76.57985 9128 ft 308 kts 89°
2026-05-08 06:49 39.08604 -76.55195 9737 ft 314 kts 90°
2026-05-08 06:49 39.08718 -76.52407 10333 ft 319 kts 90°
2026-05-08 06:50 39.08830 -76.49531 10916 ft 323 kts 90°
2026-05-08 06:50 39.08944 -76.46618 11479 ft 329 kts 88°
2026-05-08 06:50 39.09409 -76.43717 12061 ft 334 kts 70°
2026-05-08 06:50 39.10185 -76.40886 12690 ft 337 kts 68°
2026-05-08 06:51 39.11001 -76.38041 13289 ft 341 kts 68°
2026-05-08 06:51 39.11819 -76.35154 13859 ft 345 kts 68°
2026-05-08 06:51 39.12629 -76.32232 14353 ft 350 kts 68°
2026-05-08 06:51 39.13441 -76.29245 14808 ft 356 kts 69°
2026-05-08 06:52 39.14258 -76.26212 15276 ft 361 kts 69°
2026-05-08 06:52 39.15079 -76.23137 15735 ft 366 kts 71°
2026-05-08 06:52 39.15645 -76.19921 16190 ft 371 kts 83°
2026-05-08 06:52 39.15970 -76.16602 16663 ft 375 kts 86°
2026-05-08 06:53 39.16283 -76.13240 17086 ft 379 kts 85°
2026-05-08 06:53 39.16636 -76.09864 17638 ft 381 kts 84°
2026-05-08 06:53 39.17014 -76.06470 18084 ft 387 kts 84°
2026-05-08 06:53 39.17404 -76.03050 18417 ft 397 kts 84°
2026-05-08 06:54 39.17817 -75.99429 18504 ft 419 kts 84°
2026-05-08 06:54 39.18250 -75.95609 18679 ft 443 kts 84°
2026-05-08 06:54 39.18755 -75.91627 19145 ft 455 kts 76°
2026-05-08 06:54 39.19982 -75.87856 19819 ft 457 kts 55°
2026-05-08 06:55 39.21969 -75.84719 20556 ft 448 kts 35°
2026-05-08 06:55 39.24329 -75.82097 21270 ft 450 kts 31°
2026-05-08 06:55 39.26767 -75.79520 21904 ft 456 kts 30°
2026-05-08 06:55 39.29237 -75.76919 22522 ft 461 kts 31°
2026-05-08 06:56 39.31712 -75.74273 23253 ft 465 kts 31°
2026-05-08 06:56 39.34204 -75.71566 23857 ft 470 kts 31°
2026-05-08 06:56 39.36714 -75.68810 24429 ft 476 kts 31°
2026-05-08 06:56 39.39252 -75.66010 24911 ft 483 kts 31°
2026-05-08 06:57 39.41825 -75.63170 25401 ft 488 kts 31°
2026-05-08 06:57 39.44419 -75.60308 25937 ft 492 kts 31°
2026-05-08 06:57 39.47035 -75.57430 26471 ft 496 kts 30°
2026-05-08 06:57 39.49684 -75.54523 26977 ft 501 kts 30°
2026-05-08 06:58 39.52352 -75.51593 27465 ft 506 kts 30°
2026-05-08 06:58 39.55011 -75.48665 27938 ft 511 kts 30°
2026-05-08 06:58 39.57733 -75.45661 28446 ft 515 kts 30°
2026-05-08 06:58 39.60473 -75.42637 28899 ft 520 kts 30°
2026-05-08 06:59 39.63241 -75.39576 29361 ft 524 kts 30°
2026-05-08 06:59 39.66035 -75.36488 29872 ft 527 kts 30°
2026-05-08 06:59 39.68834 -75.33395 30282 ft 531 kts 30°
2026-05-08 06:59 39.71642 -75.30284 30745 ft 532 kts 30°
2026-05-08 07:00 39.74421 -75.27200 31283 ft 530 kts 29°
2026-05-08 07:00 39.77253 -75.24052 31865 ft 528 kts 29°
2026-05-08 07:00 39.79996 -75.20851 32427 ft 534 kts 35°
2026-05-08 07:00 39.82494 -75.17330 32937 ft 539 kts 39°
2026-05-08 07:01 39.84931 -75.13608 33436 ft 540 kts 40°
2026-05-08 07:01 39.87341 -75.09848 33864 ft 541 kts 40°
2026-05-08 07:01 39.89766 -75.06106 34255 ft 539 kts 39°
2026-05-08 07:01 39.92195 -75.02426 34804 ft 531 kts 38°
2026-05-08 07:02 39.94621 -74.98797 34989 ft 534 kts 38°
2026-05-08 07:02 39.97059 -74.95116 34935 ft 538 kts 41°
2026-05-08 07:02 40.01367 -74.87083 34938 ft 539 kts 49°
2026-05-08 07:03 40.05419 -74.78811 34949 ft 541 kts 49°
2026-05-08 07:03 40.09505 -74.70628 34934 ft 542 kts 48°
2026-05-08 07:04 40.13676 -74.62413 34930 ft 543 kts 48°
2026-05-08 07:04 40.17876 -74.54118 34935 ft 543 kts 48°
2026-05-08 07:05 40.21474 -74.45410 34917 ft 556 kts 66°
2026-05-08 07:05 40.23975 -74.35759 34906 ft 557 kts 69°
2026-05-08 07:06 40.26367 -74.26148 34924 ft 555 kts 68°
2026-05-08 07:06 40.28826 -74.16645 34927 ft 555 kts 67°
2026-05-08 07:07 40.31335 -74.07081 34925 ft 554 kts 67°
2026-05-08 07:07 40.33823 -73.97525 34893 ft 554 kts 68°
2026-05-08 07:08 40.36298 -73.87969 34461 ft 556 kts 68°
2026-05-08 07:08 40.37543 -73.83160 33968 ft 556 kts 68°
2026-05-08 07:08 40.38784 -73.78355 33343 ft 557 kts 68°
2026-05-08 07:09 40.40023 -73.73545 32902 ft 554 kts 68°
2026-05-08 07:09 40.41247 -73.68780 32532 ft 551 kts 69°
2026-05-08 07:09 40.42469 -73.64021 32043 ft 548 kts 69°
2026-05-08 07:09 40.43682 -73.59287 31649 ft 544 kts 69°
2026-05-08 07:10 40.44934 -73.54621 31248 ft 539 kts 64°
2026-05-08 07:10 40.46505 -73.50186 30933 ft 530 kts 59°
2026-05-08 07:10 40.48140 -73.45937 30554 ft 527 kts 58°
2026-05-08 07:10 40.49820 -73.41680 30168 ft 524 kts 58°
2026-05-08 07:11 40.51494 -73.37445 29715 ft 522 kts 58°
2026-05-08 07:11 40.53148 -73.33223 29267 ft 518 kts 58°
2026-05-08 07:11 40.54778 -73.29014 28773 ft 514 kts 59°
2026-05-08 07:11 40.56381 -73.24834 28410 ft 510 kts 59°
2026-05-08 07:12 40.57964 -73.20680 27961 ft 506 kts 59°
2026-05-08 07:12 40.59535 -73.16544 27526 ft 503 kts 59°
2026-05-08 07:12 40.61091 -73.12439 27096 ft 499 kts 59°
2026-05-08 07:12 40.62634 -73.08364 26675 ft 496 kts 59°
2026-05-08 07:13 40.64170 -73.04308 26251 ft 493 kts 60°
2026-05-08 07:13 40.65690 -73.00287 25833 ft 490 kts 60°
2026-05-08 07:13 40.67204 -72.96281 25413 ft 487 kts 60°
2026-05-08 07:13 40.68705 -72.92303 24957 ft 484 kts 60°
2026-05-08 07:14 40.70198 -72.88339 24601 ft 480 kts 60°
2026-05-08 07:14 40.71680 -72.84402 24139 ft 479 kts 60°
2026-05-08 07:14 40.73160 -72.80465 23703 ft 478 kts 60°
2026-05-08 07:14 40.74627 -72.76556 23220 ft 476 kts 60°
2026-05-08 07:15 40.76087 -72.72658 22750 ft 472 kts 61°
2026-05-08 07:15 40.77537 -72.68784 22299 ft 469 kts 61°
2026-05-08 07:15 40.78973 -72.64941 21851 ft 464 kts 61°
2026-05-08 07:15 40.80394 -72.61133 21431 ft 460 kts 61°
2026-05-08 07:16 40.81800 -72.57359 20973 ft 456 kts 62°
2026-05-08 07:16 40.83175 -72.53665 20573 ft 452 kts 62°
2026-05-08 07:16 40.84555 -72.49954 20161 ft 448 kts 62°
2026-05-08 07:16 40.85921 -72.46275 19767 ft 445 kts 62°
2026-05-08 07:17 40.87280 -72.42613 19324 ft 442 kts 62°
2026-05-08 07:17 40.88629 -72.38970 18888 ft 439 kts 62°
2026-05-08 07:17 40.89964 -72.35363 18456 ft 436 kts 63°
2026-05-08 07:17 40.91296 -72.31759 18001 ft 433 kts 63°
2026-05-08 07:18 40.92591 -72.28196 17666 ft 426 kts 64°
2026-05-08 07:18 40.93837 -72.24685 17365 ft 417 kts 64°
2026-05-08 07:18 40.95048 -72.21244 17095 ft 409 kts 65°
2026-05-08 07:18 40.96237 -72.17859 16823 ft 402 kts 65°
2026-05-08 07:19 40.97407 -72.14532 16531 ft 396 kts 65°
2026-05-08 07:19 40.98565 -72.11243 16175 ft 392 kts 65°
2026-05-08 07:19 40.99714 -72.07979 15805 ft 390 kts 65°
2026-05-08 07:19 41.00857 -72.04731 15393 ft 389 kts 65°
2026-05-08 07:20 41.01997 -72.01491 14981 ft 387 kts 65°
2026-05-08 07:20 41.03118 -71.98301 14558 ft 386 kts 66°
2026-05-08 07:20 41.04248 -71.95080 14145 ft 384 kts 66°
2026-05-08 07:20 41.05388 -71.91886 13728 ft 383 kts 63°
2026-05-08 07:21 41.06874 -71.88979 13347 ft 378 kts 50°
2026-05-08 07:21 41.08546 -71.86314 12952 ft 374 kts 48°
2026-05-08 07:21 41.10241 -71.83711 12546 ft 372 kts 47°
2026-05-08 07:21 41.11924 -71.81127 12130 ft 369 kts 47°
2026-05-08 07:22 41.13573 -71.78566 11701 ft 360 kts 48°
2026-05-08 07:22 41.15168 -71.76058 11316 ft 350 kts 48°
2026-05-08 07:22 41.16712 -71.73611 10920 ft 342 kts 48°
2026-05-08 07:22 41.18217 -71.71213 10544 ft 334 kts 48°
2026-05-08 07:23 41.19685 -71.68867 10170 ft 326 kts 48°
2026-05-08 07:23 41.20940 -71.66447 9971 ft 312 kts 61°
2026-05-08 07:23 41.21949 -71.63922 9621 ft 306 kts 62°
2026-05-08 07:23 41.22930 -71.61444 9263 ft 300 kts 62°
2026-05-08 07:24 41.23901 -71.59023 8926 ft 294 kts 57°
2026-05-08 07:24 41.25114 -71.56941 8620 ft 285 kts 46°
2026-05-08 07:24 41.26386 -71.54957 8297 ft 279 kts 46°
2026-05-08 07:24 41.27634 -71.53009 8001 ft 273 kts 46°
2026-05-08 07:25 41.28853 -71.51099 7715 ft 268 kts 46°
2026-05-08 07:25 41.29946 -71.49102 7422 ft 268 kts 61°
2026-05-08 07:25 41.31684 -71.44756 6893 ft 264 kts 55°
2026-05-08 07:26 41.32786 -71.42846 6680 ft 258 kts 47°
2026-05-08 07:26 41.33919 -71.41008 6463 ft 255 kts 47°
2026-05-08 07:26 41.35040 -71.39184 6212 ft 258 kts 47°
2026-05-08 07:26 41.36186 -71.37319 5904 ft 258 kts 47°
2026-05-08 07:27 41.37308 -71.35485 5701 ft 253 kts 47°
2026-05-08 07:27 41.38408 -71.33678 5489 ft 250 kts 47°
2026-05-08 07:27 41.39511 -71.31905 5279 ft 247 kts 40°
2026-05-08 07:27 41.40763 -71.30378 5081 ft 242 kts 36°
2026-05-08 07:28 41.42020 -71.28890 4863 ft 241 kts 36°
2026-05-08 07:28 41.43269 -71.27407 4655 ft 239 kts 36°
2026-05-08 07:28 41.44503 -71.25947 4443 ft 236 kts 36°
2026-05-08 07:28 41.45720 -71.24507 4276 ft 232 kts 36°
2026-05-08 07:29 41.46932 -71.23080 4141 ft 232 kts 36°
2026-05-08 07:29 41.48130 -71.21679 4110 ft 225 kts 36°
2026-05-08 07:29 41.49332 -71.20366 4024 ft 220 kts 22°
2026-05-08 07:29 41.50721 -71.20037 4008 ft 202 kts 338°
2026-05-08 07:30 41.51953 -71.20904 3985 ft 200 kts 320°
2026-05-08 07:30 41.53096 -71.21959 3888 ft 203 kts 319°
2026-05-08 07:30 41.54215 -71.23079 3790 ft 200 kts 317°
2026-05-08 07:30 41.55298 -71.24212 3686 ft 196 kts 317°
2026-05-08 07:31 41.56357 -71.25336 3557 ft 192 kts 317°
2026-05-08 07:31 41.57373 -71.26416 3393 ft 180 kts 317°
2026-05-08 07:31 41.58325 -71.27430 3208 ft 170 kts 317°
2026-05-08 07:31 41.59222 -71.28384 3031 ft 160 kts 317°
2026-05-08 07:32 41.60066 -71.29284 2860 ft 150 kts 318°
2026-05-08 07:32 41.60876 -71.30149 2672 ft 150 kts 319°
2026-05-08 07:32 41.61691 -71.31018 2565 ft 146 kts 319°
2026-05-08 07:32 41.62452 -71.31827 2426 ft 135 kts 319°
2026-05-08 07:33 41.63161 -71.32582 2262 ft 127 kts 320°
2026-05-08 07:33 41.63843 -71.33307 2114 ft 126 kts 321°
2026-05-08 07:33 41.64523 -71.34032 1943 ft 127 kts 321°
2026-05-08 07:33 41.65209 -71.34762 1772 ft 126 kts 322°
2026-05-08 07:34 41.65895 -71.35492 1601 ft 126 kts 322°
2026-05-08 07:34 41.66582 -71.36222 1424 ft 126 kts 322°
2026-05-08 07:34 41.67272 -71.36956 1252 ft 126 kts 322°
2026-05-08 07:34 41.67946 -71.37673 1073 ft 126 kts 322°
2026-05-08 07:35 41.68653 -71.38423 902 ft 130 kts 321°
2026-05-08 07:35 41.69373 -71.39192 708 ft 133 kts 321°
2026-05-08 07:35 41.70087 -71.39960 506 ft 130 kts 318°
2026-05-08 07:35 41.70778 -71.40744 373 ft 133 kts 324°
2026-05-08 07:36 41.71285 -71.41229 187 ft 136 kts 321°
2026-05-08 07:36 41.72025 -71.42011 88 ft 135 kts 322°
2026-05-08 07:36 41.72687 -71.42709 55 ft 102 kts 322°
2026-05-08 07:36 41.72888 -71.42949 62 ft 9 kts 273°
2026-05-08 07:37 41.72853 -71.43003 60 ft 0 kts 212°
2026-05-08 07:37 41.72852 -71.43004 60 ft 1 kts 212°
2026-05-08 07:38 41.72808 -71.43039 61 ft 15 kts 211°
2026-05-08 07:38 41.72693 -71.43138 61 ft 22 kts 212°
2026-05-08 07:38 41.72583 -71.43261 59 ft 14 kts 256°
2026-05-08 07:38 41.72595 -71.43349 61 ft 11 kts 302°
2026-05-08 07:39 41.72627 -71.43403 64 ft 1 kts 311°
2026-05-08 07:39 41.72627 -71.43404 65 ft 0 kts 311°